STARLINK-1210, 45207

Orbit data source: Space-Track

STARLINK-1210, 45207 is a payload satellite owned by SpaceX/Seattle (US) in LEO that was launched on Mon, 17 Feb 2020 UTC via an FALCON 9 launch vehicle from the Air Force Eastern Test Range (AFETR). Payload-class satellites include a variety of spacecraft equipped with specific instruments for various scientific and technological missions. These include communications satellites like Starlink; space stations such as the ISS; scientific satellites like the Hubble; Earth observation satellites from companies like Planet Labs, Umbra, and HawkEye 360; GPS; miniature CubeSats for education and research; and military/defense satellites.

Loading next visibility...
Identifier
45207, 2020-012AF
Orbit
LEO
Last TLE update
13 hours ago
Origin
Manufacturer
SpaceX/Seattle
Mission
Partially operational Commercial Communications
Bus & Motor
STARLINK, Unknown motor
Mass
260 kg wet, ~248 kg dry
Launch date (UTC)
2020-02-17 (5 years ago)
Launch vehicle
FALCON 9
Launch site
Air Force Eastern Test Range (AFETR)
Object type
Payload
Rocket body
Debris
Shape & HBR
Box + 1 Pan, 8.86 m
Radar Cross Section
13.562 m², Large (>1 m²)

Expand to show TLE details & history

TLE from 13 hours ago
0 STARLINK-1210
1 45207U 20012AF  25181.87796214  .00058803  00000-0  17130-2 0  9992
2 45207  53.0336  49.4976 0007809  29.0260 331.1174 15.34826538297555
Epoch: 2025-06-30T21:04Z
TLE epoch observation values (Epoch: 2025-06-30T21:04:15.928Z)
Latitude
-0.00004°
Longitude
174.24975°
Altitude
457.648 km
Speed
7.642 km/s
True Right ascension
03h 17m 59s
True Declination
0° 00' 00"
Sunlit
Object was in daylight at epoch
Visualization orbit readout
Latitude
42.21038°
Longitude
-145.48453°
Altitude
460.522 km
Speed
7.644 km/s
Apparent Right ascension
07h 41m 20s
Apparent Declination
3° 12' 16"
Sunlit
Object is in daylight
Visualization observer readout
Local Sidereal Time
21:27:32
Azimuth
35.923° NE
Elevation
-40.479°
Doppler factor
1
Orbital elements
Apogee altitude
467.054 km
Perigee altitude
456.372 km
Semi-major axis
6,839.85 km
Eccentricity
0.00078
Inclination
53.0336°
RAAN
49.4976°
Arg. of periapsis
29.026°
True anomaly
Unknown
Mean anomaly
331.1174°
Eccentric anomaly
Unknown
Mean motion
3.83684 °/min
Orbital period
93.83 mins
BSTAR
0.001713
Loading maneuver chart data...
Loading SW <> Apogee altitude chart data...

STARLINK-1210 Visibility forecast

Observer location: undefined°, undefined°

Span
Click to sort rows by Start time (UTC) header in descending order
Start Az.
Max El. time (UTC)
Max El. Az.
Max El.
End time (UTC)
End Az.
6 mins2025-07-01 17:33:11.741Z212.588° SW2025-07-01 17:36:11.741Z141.46° SSE39.088°2025-07-01 17:39:11.741Z60.355° ENE
5 mins2025-07-02 00:08:11.741Z332.291° NNW2025-07-02 00:10:11.741Z48.435° ENE36.077°2025-07-02 00:13:11.741Z109.696° ESE
|